| time (UTC) | temp C | wind direction | speed KPH | gust KPH | rain 1hr cm | rain 24hr cm | rain mn cm | humidity % | barometer mb |
| 20260503014018 | 17 | 289 | 1.6 | 6.4 | 0.00 | 0.00 | 0.00 | 36 | 1013.7 |
| 20260503013518 | 17 | 288 | 3.2 | 6.4 | 0.00 | 0.00 | 0.00 | 36 | 1013.7 |
| 20260503013051 | 17 | 281 | 3.2 | 4.8 | 0.00 | 0.00 | 0.00 | 36 | 1013.7 |
| 20260503012519 | 17 | 281 | 1.6 | 4.8 | 0.00 | 0.00 | 0.00 | 37 | 1013.8 |
| 20260503012022 | 17 | 279 | 1.6 | 4.8 | 0.00 | 0.00 | 0.00 | 38 | 1013.8 |
| 20260503011813 | 17 | 284 | 1.6 | 4.8 | 0.00 | 0.00 | 0.00 | 37 | 1013.7 |
| 20260503011018 | 17 | 280 | 1.6 | 6.4 | 0.00 | 0.00 | 0.00 | 37 | 1013.8 |
| 20260503010517 | 17 | 270 | 3.2 | 6.4 | 0.00 | 0.00 | 0.00 | 36 | 1013.8 |
| 20260503010046 | 18 | 275 | 1.6 | 4.8 | 0.00 | 0.00 | 0.00 | 37 | 1013.7 |
| 20260503005519 | 18 | 275 | 3.2 | 4.8 | 0.00 | 0.00 | 0.00 | 34 | 1013.9 |
| 20260503005021 | 18 | 288 | 0.0 | 3.2 | 0.00 | 0.00 | 0.00 | 35 | 1013.8 |
| 20260503004604 | 18 | 198 | 0.0 | 4.8 | 0.00 | 0.00 | 0.00 | 33 | 1014.0 |
| 20260503004018 | 18 | 198 | 0.0 | 6.4 | 0.00 | 0.00 | 0.00 | 32 | 1014.0 |
| 20260503003518 | 18 | 165 | 3.2 | 12.9 | 0.00 | 0.00 | 0.00 | 32 | 1013.9 |
| 20260503003052 | 19 | 157 | 6.4 | 14.5 | 0.00 | 0.00 | 0.00 | 32 | 1014.0 |
| 20260503002516 | 20 | 162 | 9.7 | 12.9 | 0.00 | 0.00 | 0.00 | 30 | 1014.2 |
| 20260503002009 | 20 | 138 | 0.0 | 8.0 | 0.00 | 0.00 | 0.00 | 33 | 1014.2 |
| 20260503001607 | 19 | 29 | 1.6 | 9.7 | 0.00 | 0.00 | 0.00 | 32 | 1014.1 |
| 20260503001017 | 19 | 21 | 1.6 | 9.7 | 0.00 | 0.00 | 0.00 | 33 | 1014.3 |
| 20260503000516 | 19 | 85 | 3.2 | 8.0 | 0.00 | 0.00 | 0.00 | 31 | 1014.4 |
| 20260503000054 | 19 | 216 | 4.8 | 12.9 | 0.00 | 0.00 | 0.00 | 32 | 1014.6 |
| 20260502235518 | 19 | 223 | 4.8 | 14.5 | 0.00 | 0.00 | 0.00 | 32 | 1014.7 |
| 20260502235016 | 20 | 221 | 8.0 | 14.5 | 0.00 | 0.00 | 0.00 | 32 | 1014.7 |
| 20260502234550 | 19 | 22 | 1.6 | 22.5 | 0.00 | 0.00 | 0.00 | 33 | 1014.5 |
| 20260502234016 | 19 | 354 | 12.9 | 22.5 | 0.00 | 0.00 | 0.00 | 32 | 1014.7 |
| 20260502233518 | 19 | 254 | 4.8 | 16.1 | 0.00 | 0.00 | 0.00 | 34 | 1014.8 |
| 20260502233050 | 19 | 282 | 8.0 | 16.1 | 0.00 | 0.00 | 0.00 | 33 | 1014.7 |
| 20260502232516 | 19 | 293 | 6.4 | 12.9 | 0.00 | 0.00 | 0.00 | 33 | 1014.8 |
| 20260502232018 | 19 | 160 | 3.2 | 12.9 | 0.00 | 0.00 | 0.00 | 33 | 1015.0 |
| 20260502231552 | 19 | 142 | 3.2 | 11.3 | 0.00 | 0.00 | 0.00 | 32 | 1014.9 |
| 20260502231017 | 18 | 206 | 1.6 | 12.9 | 0.00 | 0.00 | 0.00 | 33 | 1014.9 |
| 20260502230512 | 18 | 196 | 6.4 | 14.5 | 0.00 | 0.00 | 0.00 | 33 | 1015.0 |
| 20260502225518 | 19 | 261 | 6.4 | 12.9 | 0.00 | 0.00 | 0.00 | 34 | 1015.1 |
| 20260502225018 | 19 | 2 | 4.8 | 16.1 | 0.00 | 0.00 | 0.00 | 34 | 1015.2 |
| 20260502224557 | 19 | 183 | 8.0 | 16.1 | 0.00 | 0.00 | 0.00 | 34 | 1015.2 |
| 20260502224018 | 18 | 49 | 0.0 | 8.0 | 0.00 | 0.00 | 0.00 | 36 | 1015.3 |
| 20260502223523 | 18 | 30 | 3.2 | 17.7 | 0.00 | 0.00 | 0.00 | 36 | 1015.3 |
| 20260502223052 | 18 | 254 | 8.0 | 20.9 | 0.00 | 0.00 | 0.00 | 35 | 1015.1 |
| 20260502222520 | 18 | 322 | 11.3 | 20.9 | 0.00 | 0.00 | 0.00 | 36 | 1015.3 |
| 20260502222016 | 18 | 323 | 11.3 | 17.7 | 0.00 | 0.00 | 0.00 | 36 | 1015.5 |
| 20260502221554 | 18 | 255 | 6.4 | 16.1 | 0.00 | 0.00 | 0.00 | 35 | 1015.7 |
| 20260502221016 | 18 | 318 | 9.7 | 19.3 | 0.00 | 0.00 | 0.00 | 36 | 1015.7 |
| 20260502220519 | 18 | 340 | 8.0 | 22.5 | 0.00 | 0.00 | 0.00 | 35 | 1015.6 |
| 20260502220100 | 18 | 332 | 11.3 | 24.1 | 0.00 | 0.00 | 0.00 | 35 | 1015.7 |
| 20260502215519 | 19 | 310 | 16.1 | 24.1 | 0.00 | 0.00 | 0.00 | 33 | 1015.9 |
| 20260502215016 | 20 | 23 | 8.0 | 19.3 | 0.00 | 0.00 | 0.00 | 33 | 1015.9 |
| 20260502214559 | 20 | 349 | 11.3 | 19.3 | 0.00 | 0.00 | 0.00 | 34 | 1016.0 |
| 20260502214017 | 20 | 325 | 9.7 | 17.7 | 0.00 | 0.00 | 0.00 | 33 | 1016.0 |
| 20260502213520 | 19 | 3 | 8.0 | 17.7 | 0.00 | 0.00 | 0.00 | 35 | 1015.9 |
| 20260502213058 | 18 | 335 | 8.0 | 19.3 | 0.00 | 0.00 | 0.00 | 36 | 1015.9 |
| 20260502212519 | 18 | 3 | 9.7 | 16.1 | 0.00 | 0.00 | 0.00 | 36 | 1015.9 |
| 20260502212021 | 18 | 275 | 6.4 | 24.1 | 0.00 | 0.00 | 0.00 | 36 | 1016.1 |
| 20260502211550 | 18 | 296 | 14.5 | 24.1 | 0.00 | 0.00 | 0.00 | 35 | 1016.2 |
| 20260502211016 | 19 | 313 | 4.8 | 17.7 | 0.00 | 0.00 | 0.00 | 35 | 1016.3 |
| 20260502210518 | 19 | 42 | 3.2 | 14.5 | 0.00 | 0.00 | 0.00 | 33 | 1016.3 |
| 20260502210133 | 18 | 270 | 3.2 | 16.1 | 0.00 | 0.00 | 0.00 | 34 | 1016.2 |
| 20260502205516 | 18 | 311 | 3.2 | 19.3 | 0.00 | 0.00 | 0.00 | 34 | 1016.4 |
| 20260502205016 | 18 | 306 | 11.3 | 20.9 | 0.00 | 0.00 | 0.00 | 36 | 1016.2 |
| 20260502204548 | 18 | 302 | 9.7 | 20.9 | 0.00 | 0.00 | 0.00 | 35 | 1016.4 |
| 20260502204016 | 17 | 5 | 11.3 | 24.1 | 0.00 | 0.00 | 0.00 | 36 | 1016.3 |
| 20260502203515 | 18 | 313 | 14.5 | 24.1 | 0.00 | 0.00 | 0.00 | 35 | 1016.6 |
| 20260502203426 | 19 | 311 | 12.9 | 20.9 | 0.00 | 0.00 | 0.00 | 34 | 1016.6 |
| 20260502202516 | 18 | 258 | 3.2 | 16.1 | 0.00 | 0.00 | 0.00 | 34 | 1016.4 |
| 20260502202017 | 18 | 319 | 9.7 | 16.1 | 0.00 | 0.00 | 0.00 | 36 | 1016.6 |
| 20260502201607 | 18 | 265 | 3.2 | 14.5 | 0.00 | 0.00 | 0.00 | 36 | 1016.5 |
| 20260502201015 | 18 | 352 | 3.2 | 12.9 | 0.00 | 0.00 | 0.00 | 36 | 1016.6 |
| 20260502200515 | 18 | 327 | 4.8 | 14.5 | 0.00 | 0.00 | 0.00 | 38 | 1016.7 |
| 20260502200039 | 18 | 359 | 6.4 | 14.5 | 0.00 | 0.00 | 0.00 | 36 | 1016.8 |
| 20260502195511 | 18 | 332 | 1.6 | 9.7 | 0.00 | 0.00 | 0.00 | 35 | 1016.8 |
| 20260502195013 | 17 | 19 | 3.2 | 16.1 | 0.00 | 0.00 | 0.00 | 35 | 1016.8 |
| 20260502194539 | 17 | 333 | 8.0 | 16.1 | 0.00 | 0.00 | 0.00 | 36 | 1016.8 |
| 20260502194014 | 17 | 283 | 6.4 | 14.5 | 0.00 | 0.00 | 0.00 | 36 | 1016.9 |
| 20260502193517 | 17 | 298 | 8.0 | 19.3 | 0.00 | 0.00 | 0.00 | 36 | 1016.8 |
| 20260502193039 | 17 | 303 | 8.0 | 19.3 | 0.00 | 0.00 | 0.00 | 36 | 1017.1 |
| 20260502192516 | 18 | 302 | 9.7 | 17.7 | 0.00 | 0.00 | 0.00 | 36 | 1017.1 |
| 20260502192013 | 17 | 353 | 1.6 | 17.7 | 0.00 | 0.00 | 0.00 | 36 | 1017.1 |
| 20260502191537 | 17 | 203 | 11.3 | 17.7 | 0.00 | 0.00 | 0.00 | 35 | 1017.2 |
| 20260502191014 | 18 | 194 | 4.8 | 17.7 | 0.00 | 0.00 | 0.00 | 35 | 1017.1 |
| 20260502190514 | 17 | 312 | 4.8 | 17.7 | 0.00 | 0.00 | 0.00 | 38 | 1017.2 |
| 20260502190042 | 17 | 270 | 8.0 | 19.3 | 0.00 | 0.00 | 0.00 | 36 | 1017.4 |
| 20260502185520 | 17 | 275 | 11.3 | 19.3 | 0.00 | 0.00 | 0.00 | 35 | 1017.3 |
| 20260502185017 | 18 | 308 | 8.0 | 19.3 | 0.00 | 0.00 | 0.00 | 33 | 1017.2 |
| 20260502184613 | 19 | 342 | 6.4 | 16.1 | 0.00 | 0.00 | 0.00 | 35 | 1017.3 |
| 20260502184015 | 20 | 319 | 8.0 | 16.1 | 0.00 | 0.00 | 0.00 | 35 | 1017.4 |
| 20260502183515 | 20 | 8 | 8.0 | 20.9 | 0.00 | 0.00 | 0.00 | 34 | 1017.6 |
| 20260502183115 | 19 | 18 | 9.7 | 20.9 | 0.00 | 0.00 | 0.00 | 36 | 1017.6 |
| 20260502182519 | 18 | 329 | 11.3 | 20.9 | 0.00 | 0.00 | 0.00 | 36 | 1017.7 |
| 20260502182021 | 18 | 11 | 11.3 | 16.1 | 0.00 | 0.00 | 0.00 | 36 | 1017.7 |
| 20260502181613 | 18 | 307 | 9.7 | 17.7 | 0.00 | 0.00 | 0.00 | 36 | 1017.9 |
| 20260502181021 | 17 | 1 | 8.0 | 24.1 | 0.00 | 0.00 | 0.00 | 39 | 1018.0 |
| 20260502180519 | 17 | 335 | 16.1 | 24.1 | 0.00 | 0.00 | 0.00 | 40 | 1017.9 |
| 20260502180111 | 16 | 306 | 12.9 | 19.3 | 0.00 | 0.00 | 0.00 | 38 | 1018.0 |
| 20260502170520 | 17 | 359 | 16.1 | 24.1 | 0.00 | 0.00 | 0.00 | 38 | 1018.0 |
| 20260502164021 | 16 | 2 | 17.7 | 29.0 | 0.00 | 0.00 | 0.00 | 39 | 1018.0 |
| 20260502163517 | 17 | 348 | 14.5 | 32.2 | 0.00 | 0.00 | 0.00 | 38 | 1018.1 |
| 20260502163056 | 17 | 337 | 17.7 | 32.2 | 0.00 | 0.00 | 0.00 | 39 | 1018.0 |
| 20260502162515 | 16 | 355 | 14.5 | 25.7 | 0.00 | 0.00 | 0.00 | 40 | 1018.2 |
| 20260502162019 | 16 | 351 | 17.7 | 29.0 | 0.00 | 0.00 | 0.00 | 40 | 1018.1 |
| 20260502161544 | 16 | 331 | 17.7 | 27.4 | 0.00 | 0.00 | 0.00 | 39 | 1017.9 |
| 20260502161014 | 16 | 324 | 16.1 | 32.2 | 0.00 | 0.00 | 0.00 | 40 | 1018.1 |
| 20260502160519 | 16 | 329 | 16.1 | 32.2 | 0.00 | 0.00 | 0.00 | 40 | 1018.2 |
| 20260502152016 | 15 | 17 | 17.7 | 27.4 | 0.00 | 0.00 | 0.00 | 41 | 1017.8 |
| 20260502151548 | 15 | 12 | 20.9 | 27.4 | 0.00 | 0.00 | 0.00 | 41 | 1017.7 |
| 20260502151014 | 15 | 316 | 19.3 | 27.4 | 0.00 | 0.00 | 0.00 | 42 | 1017.6 |
| 20260502150515 | 14 | 12 | 16.1 | 25.7 | 0.00 | 0.00 | 0.00 | 43 | 1017.4 |
| 20260502150310 | 14 | 350 | 17.7 | 25.7 | 0.00 | 0.00 | 0.00 | 43 | 1017.4 |
| 20260502130519 | 5 | 235 | 1.6 | 4.8 | 0.00 | 0.00 | 0.00 | 62 | 1016.4 |
| 20260502123518 | 3 | 323 | 0.0 | 4.8 | 0.00 | 0.00 | 0.00 | 64 | 1016.1 |
| 20260502123311 | 3 | 293 | 0.0 | 4.8 | 0.00 | 0.00 | 0.00 | 64 | 1016.0 |
| 20260502122515 | 3 | 256 | 1.6 | 4.8 | 0.00 | 0.00 | 0.00 | 64 | 1016.0 |
| 20260502122014 | 3 | 234 | 1.6 | 4.8 | 0.00 | 0.00 | 0.00 | 62 | 1016.0 |
| 20260502121551 | 3 | 292 | 0.0 | 4.8 | 0.00 | 0.00 | 0.00 | 62 | 1015.6 |
| 20260502121017 | 4 | 292 | 1.6 | 6.4 | 0.00 | 0.00 | 0.00 | 61 | 1015.5 |
| 20260502120517 | 4 | 312 | 1.6 | 6.4 | 0.00 | 0.00 | 0.00 | 61 | 1015.5 |
| 20260502115516 | 4 | 207 | 0.0 | 3.2 | 0.00 | 0.00 | 0.00 | 60 | 1015.4 |
| 20260502115202 | 4 | 207 | 0.0 | 4.8 | 0.00 | 0.00 | 0.00 | 60 | 1015.5 |
| 20260502114547 | 4 | 193 | 1.6 | 4.8 | 0.00 | 0.00 | 0.00 | 61 | 1015.3 |
| 20260502114017 | 4 | 254 | 0.0 | 4.8 | 0.00 | 0.00 | 0.00 | 61 | 1015.2 |
| 20260502113515 | 3 | 275 | 0.0 | 6.4 | 0.00 | 0.00 | 0.00 | 61 | 1015.2 |
| 20260502113044 | 4 | 300 | 1.6 | 6.4 | 0.00 | 0.00 | 0.00 | 60 | 1015.1 |
| 20260502112514 | 4 | 190 | 3.2 | 6.4 | 0.00 | 0.00 | 0.00 | 58 | 1015.3 |
| 20260502112015 | 5 | 177 | 0.0 | 3.2 | 0.00 | 0.00 | 0.00 | 57 | 1015.2 |
| 20260502111543 | 5 | 204 | 1.6 | 3.2 | 0.00 | 0.00 | 0.00 | 56 | 1015.1 |
| 20260502111014 | 5 | 225 | 0.0 | 6.4 | 0.00 | 0.00 | 0.00 | 56 | 1015.1 |
| 20260502110515 | 5 | 219 | 3.2 | 6.4 | 0.00 | 0.00 | 0.00 | 56 | 1015.0 |
| 20260502110039 | 5 | 202 | 1.6 | 3.2 | 0.00 | 0.00 | 0.00 | 57 | 1015.0 |
| 20260502105515 | 5 | 202 | 0.0 | 6.4 | 0.00 | 0.00 | 0.00 | 55 | 1015.0 |
| 20260502105013 | 6 | 202 | 4.8 | 6.4 | 0.00 | 0.00 | 0.00 | 53 | 1014.7 |
| 20260502104540 | 6 | 198 | 3.2 | 4.8 | 0.00 | 0.00 | 0.00 | 53 | 1014.9 |
| 20260502104012 | 6 | 155 | 1.6 | 4.8 | 0.00 | 0.00 | 0.00 | 53 | 1015.0 |
| 20260502103514 | 6 | 133 | 1.6 | 4.8 | 0.00 | 0.00 | 0.00 | 51 | 1014.7 |
| 20260502103037 | 6 | 164 | 1.6 | 4.8 | 0.00 | 0.00 | 0.00 | 52 | 1014.6 |
| 20260502102513 | 6 | 199 | 1.6 | 6.4 | 0.00 | 0.00 | 0.00 | 51 | 1014.7 |
| 20260502102013 | 7 | 204 | 3.2 | 9.7 | 0.00 | 0.00 | 0.00 | 50 | 1014.5 |
| 20260502101552 | 6 | 196 | 3.2 | 9.7 | 0.00 | 0.00 | 0.00 | 52 | 1014.5 |
| 20260502101013 | 6 | 352 | 3.2 | 14.5 | 0.00 | 0.00 | 0.00 | 51 | 1014.4 |
| 20260502100513 | 7 | 301 | 3.2 | 17.7 | 0.00 | 0.00 | 0.00 | 50 | 1014.5 |
| 20260502091015 | 7 | 180 | 11.3 | 14.5 | 0.00 | 0.00 | 0.00 | 49 | 1013.6 |
| 20260502090513 | 7 | 179 | 8.0 | 11.3 | 0.00 | 0.00 | 0.00 | 49 | 1013.6 |
| 20260502071015 | 7 | 173 | 12.9 | 16.1 | 0.00 | 0.00 | 0.00 | 45 | 1013.3 |
| 20260502070515 | 7 | 173 | 11.3 | 14.5 | 0.00 | 0.00 | 0.00 | 46 | 1013.4 |
| 20260502070052 | 6 | 177 | 9.7 | 12.9 | 0.00 | 0.00 | 0.00 | 47 | 1013.3 |
| 20260502065514 | 6 | 180 | 9.7 | 12.9 | 0.00 | 0.00 | 0.00 | 48 | 1013.4 |
| 20260502065017 | 6 | 187 | 8.0 | 12.9 | 0.00 | 0.00 | 0.00 | 48 | 1013.5 |
| 20260502064546 | 6 | 189 | 4.8 | 8.0 | 0.00 | 0.00 | 0.00 | 49 | 1013.5 |
| 20260502064014 | 5 | 191 | 6.4 | 9.7 | 0.00 | 0.00 | 0.00 | 49 | 1013.4 |
| 20260502063517 | 6 | 193 | 4.8 | 11.3 | 0.00 | 0.00 | 0.00 | 48 | 1013.6 |
| 20260502063050 | 6 | 175 | 4.8 | 9.7 | 0.00 | 0.00 | 0.00 | 47 | 1013.4 |
| 20260502062515 | 6 | 202 | 3.2 | 11.3 | 0.00 | 0.00 | 0.00 | 45 | 1013.5 |
| 20260502062020 | 7 | 189 | 4.8 | 12.9 | 0.00 | 0.00 | 0.00 | 44 | 1013.4 |
| 20260502061549 | 7 | 184 | 9.7 | 12.9 | 0.00 | 0.00 | 0.00 | 43 | 1013.4 |
| 20260502061017 | 8 | 180 | 9.7 | 12.9 | 0.00 | 0.00 | 0.00 | 42 | 1013.3 |
| 20260502060518 | 8 | 178 | 11.3 | 12.9 | 0.00 | 0.00 | 0.00 | 41 | 1013.3 |
| 20260502060052 | 9 | 187 | 3.2 | 11.3 | 0.00 | 0.00 | 0.00 | 39 | 1013.5 |
| 20260502055519 | 9 | 189 | 4.8 | 11.3 | 0.00 | 0.00 | 0.00 | 39 | 1013.3 |
| 20260502055016 | 9 | 165 | 8.0 | 11.3 | 0.00 | 0.00 | 0.00 | 40 | 1013.3 |
| 20260502054553 | 9 | 161 | 8.0 | 11.3 | 0.00 | 0.00 | 0.00 | 39 | 1013.3 |
| 20260502054014 | 10 | 162 | 6.4 | 8.0 | 0.00 | 0.00 | 0.00 | 38 | 1013.2 |
| 20260502053520 | 10 | 169 | 6.4 | 9.7 | 0.00 | 0.00 | 0.00 | 37 | 1013.2 |
| 20260502053107 | 10 | 171 | 4.8 | 8.0 | 0.00 | 0.00 | 0.00 | 37 | 1013.2 |
| 20260502052520 | 10 | 173 | 4.8 | 11.3 | 0.00 | 0.00 | 0.00 | 36 | 1013.3 |
| 20260502052018 | 11 | 156 | 8.0 | 12.9 | 0.00 | 0.00 | 0.00 | 35 | 1013.3 |
| 20260502051551 | 12 | 154 | 8.0 | 12.9 | 0.00 | 0.00 | 0.00 | 33 | 1013.3 |
| 20260502051015 | 12 | 172 | 9.7 | 12.9 | 0.00 | 0.00 | 0.00 | 32 | 1013.4 |
| 20260502050518 | 12 | 173 | 9.7 | 12.9 | 0.00 | 0.00 | 0.00 | 32 | 1013.2 |
| 20260502050052 | 12 | 162 | 11.3 | 12.9 | 0.00 | 0.00 | 0.00 | 32 | 1013.2 |
| 20260502045519 | 12 | 160 | 9.7 | 14.5 | 0.00 | 0.00 | 0.00 | 33 | 1013.2 |
| 20260502045020 | 12 | 155 | 11.3 | 14.5 | 0.00 | 0.00 | 0.00 | 33 | 1013.3 |
| 20260502044553 | 11 | 140 | 9.7 | 14.5 | 0.00 | 0.00 | 0.00 | 34 | 1013.3 |
| 20260502044014 | 12 | 144 | 9.7 | 14.5 | 0.00 | 0.00 | 0.00 | 34 | 1013.2 |
| 20260502043518 | 12 | 135 | 11.3 | 14.5 | 0.00 | 0.00 | 0.00 | 34 | 1013.3 |
| 20260502043105 | 12 | 137 | 9.7 | 12.9 | 0.00 | 0.00 | 0.00 | 34 | 1013.3 |
| 20260502042514 | 12 | 150 | 9.7 | 11.3 | 0.00 | 0.00 | 0.00 | 34 | 1013.3 |
| 20260502042017 | 12 | 150 | 9.7 | 12.9 | 0.00 | 0.00 | 0.00 | 34 | 1013.2 |
| 20260502041555 | 12 | 159 | 11.3 | 12.9 | 0.00 | 0.00 | 0.00 | 33 | 1013.3 |
| 20260502041014 | 12 | 162 | 8.0 | 12.9 | 0.00 | 0.00 | 0.00 | 33 | 1013.1 |
| 20260502040518 | 11 | 156 | 6.4 | 12.9 | 0.00 | 0.00 | 0.00 | 35 | 1013.1 |
| 20260502040052 | 10 | 163 | 9.7 | 12.9 | 0.00 | 0.00 | 0.00 | 36 | 1013.2 |
| 20260502035516 | 10 | 163 | 4.8 | 6.4 | 0.00 | 0.00 | 0.00 | 36 | 1013.2 |
| 20260502035019 | 10 | 194 | 1.6 | 6.4 | 0.00 | 0.00 | 0.00 | 35 | 1013.1 |
| 20260502034554 | 10 | 169 | 1.6 | 4.8 | 0.00 | 0.00 | 0.00 | 36 | 1013.0 |
| 20260502034016 | 11 | 85 | 1.6 | 4.8 | 0.00 | 0.00 | 0.00 | 34 | 1013.0 |
| 20260502033516 | 11 | 104 | 3.2 | 4.8 | 0.00 | 0.00 | 0.00 | 33 | 1012.9 |
| 20260502033101 | 12 | 133 | 0.0 | 1.6 | 0.00 | 0.00 | 0.00 | 32 | 1012.8 |
| 20260502032518 | 12 | 133 | 0.0 | 4.8 | 0.00 | 0.00 | 0.00 | 30 | 1012.6 |
| 20260502032016 | 13 | 133 | 0.0 | 4.8 | 0.00 | 0.00 | 0.00 | 29 | 1012.9 |
| 20260502031552 | 14 | 129 | 3.2 | 6.4 | 0.00 | 0.00 | 0.00 | 28 | 1012.7 |
| 20260502031015 | 16 | 120 | 1.6 | 8.0 | 0.00 | 0.00 | 0.00 | 26 | 1012.7 |
| 20260502030516 | 16 | 121 | 4.8 | 9.7 | 0.00 | 0.00 | 0.00 | 24 | 1012.9 |
| 20260502030059 | 16 | 134 | 6.4 | 11.3 | 0.00 | 0.00 | 0.00 | 24 | 1012.8 |
| 20260502025515 | 16 | 133 | 8.0 | 11.3 | 0.00 | 0.00 | 0.00 | 25 | 1012.8 |
| 20260502025016 | 16 | 131 | 8.0 | 11.3 | 0.00 | 0.00 | 0.00 | 25 | 1012.7 |
| 20260502024554 | 16 | 123 | 8.0 | 9.7 | 0.00 | 0.00 | 0.00 | 25 | 1012.5 |
| 20260502024016 | 16 | 127 | 4.8 | 9.7 | 0.00 | 0.00 | 0.00 | 26 | 1012.6 |
| 20260502023519 | 16 | 125 | 6.4 | 8.0 | 0.00 | 0.00 | 0.00 | 25 | 1012.5 |
| 20260502023108 | 16 | 157 | 6.4 | 8.0 | 0.00 | 0.00 | 0.00 | 26 | 1012.6 |
| 20260502022516 | 17 | 169 | 4.8 | 12.9 | 0.00 | 0.00 | 0.00 | 25 | 1012.6 |
| 20260502022016 | 17 | 144 | 6.4 | 12.9 | 0.00 | 0.00 | 0.00 | 27 | 1012.6 |
| 20260502021559 | 17 | 130 | 6.4 | 9.7 | 0.00 | 0.00 | 0.00 | 26 | 1012.6 |
| 20260502021021 | 18 | 144 | 6.4 | 9.7 | 0.00 | 0.00 | 0.00 | 24 | 1012.7 |
| 20260502020515 | 18 | 141 | 6.4 | 8.0 | 0.00 | 0.00 | 0.00 | 23 | 1012.4 |
| 20260502020057 | 19 | 142 | 6.4 | 8.0 | 0.00 | 0.00 | 0.00 | 22 | 1012.4 |
| 20260502015516 | 20 | 139 | 6.4 | 11.3 | 0.00 | 0.00 | 0.00 | 22 | 1012.5 |
| 20260502015015 | 21 | 148 | 6.4 | 11.3 | 0.00 | 0.00 | 0.00 | 19 | 1012.5 |
| 20260502014600 | 21 | 139 | 4.8 | 6.4 | 0.00 | 0.00 | 0.00 | 19 | 1012.6 |